Location: Borgo
(42.3939°N, 9.2791°E)
Time: 19:47:35
(UTC+00:00)

Cosmos 1627 Rocket - Pass Details

Date: 27 February 2020
Orbit: 950 x 1005 km, 82.9° (Epoch: 05 April)

Event Time Altitude Azimuth Distance (km) Brightness Sun altitude
Rises 19:31:27 0° 352° (N) 3,665 7.8 -26.8°
Reaches altitude 10° 19:33:59 10° 352° (N) 2,707 7.1 -27.3°
Maximum altitude 19:40:11 89° 263° (W) 961 4.3 -28.4°
Enters shadow 19:41:02 69° 176° (S) 1,021 4.4 -28.5°
